sat.trackr.live / text

‹ back to catalog

STARLINK-5245

NORAD 54168 · 2022-141M

PAYLOAD ACTIVE UNKNOWN

§ Identity

Operator
Country
US
Launch date
2022-10-28
Launch site
AFWTR
Launch vehicle
Mass (kg)
RCS (m²)

Purposes: comms

External: N2YO · Heavens-Above · Gunter

§ Orbital elements

Epoch: 2026-09-20T10:46:11.933472Z

Period
93.85 min
Inclination
53.1610°
Eccentricity
0.0001754
Mean motion
15.34375636 rev/d
Perigee alt
461.6 km
Apogee alt
464.0 km
Semi-major
6,840.9 km
B*
-4.9159e-5
RAAN
194.1345°
Arg perigee
67.2155°
Mean anomaly
292.9033°
Rev number
21,547

§ Raw data

STARLINK-52451 54168U 22141M   26263.44874923 -.00002036  00000+0 -49159-4 0  99982 54168  53.1610 194.1345 0001754  67.2155 292.9033 15.34375636215472

JSON: /api/v1/satellites/54168 · /tle

For live sub-satellite position, see the globe view (requires WebGL).

§ Visibility from observer

Set your observer location to see the next 7 days of passes ≥ 10°. The values pass through the URL so the page stays shareable.

No JS? Fill the form by hand. The geolocation button needs JavaScript.